Grand Junction, CO

12:05 PM MST on December 06, 2019 (GMT -0700)
Walker

Weather History for KGJT - March, 2019

Change the Weather History Date:

Friday, March 8, 2019

  Actual Average Record
Temperature  
Mean Temperature 42 °F 42 °F  
Max Temperature 47 °F 54 °F 73 °F (1904)
Min Temperature 37 °F 30 °F 14 °F (1998)
Degree Days  
Heating Degree Days 23 23  
Month to date heating degree days 170 192  
Since 1 July heating degree days 4625 4571  
Cooling Degree Days 0 0  
Month to date cooling degree days 0 0  
Year to date cooling degree days 0 0  
Moisture  
Dew Point 34 °F    
Average Humidity 74    
Maximum Humidity 85    
Minimum Humidity 62    
Precipitation  
Precipitation 0.01 in 0.02 in 0.52 in (2010)
Month to date precipitation 0.96 0.20  
Year to date precipitation 2.40 1.32  
Snow  
Snow 0.00 in 0.10 in 0.90 in (2002)
Month to date snowfall 0.0 0.7  
Since 1 July snowfall 17.4 16.2  
Snow Depth 0.00 in    
Sea Level Pressure  
Sea Level Pressure 29.58 in    
Wind  
Wind Speed 9 mph (East)    
Max Wind Speed 28 mph    
Max Gust Speed 35 mph    
Visibility 10 miles    
Events Rain    
T = Trace of Precipitation, MM = Missing Value Source: NWS Daily Summary

Daily Weather History Graph

Daily Weather History Graph

Search for Another Location

Airport or City:

Astronomy

Mar. 08, 2019 Rise Set
Actual Time 6:36 AM MST 6:13 PM MST
Civil Twilight 6:09 AM MST 6:40 PM MST
Nautical Twilight 5:38 AM MST 7:11 PM MST
Astronomical Twilight 5:07 AM MST 7:42 PM MST
Moon 7:55 AM MST (3/8) 8:17 PM MST (3/8)
Length of Visible Light 12h 30m
Length of Day
11h 37m
Waxing Crescent, 4% of the Moon is Illuminated
Mar 8
Waxing Crescent
Mar 14
First Quarter
Mar 20
Full
Mar 27
Last Quarter
Apr 5
New

Hourly Weather History & Observations

Time (MST) Temp. Windchill Dew Point Humidity Pressure Visibility Wind Dir Wind Speed Gust Speed Precip Events Conditions
12:53 AM 43.0 °F 37.2 °F 35.1 °F 74% 29.72 in 10.0 mi East 10.4 mph - N/A   Overcast
1:53 AM 42.1 °F 34.5 °F 35.1 °F 76% 29.69 in 10.0 mi ESE 15.0 mph 23.0 mph N/A   Overcast
2:53 AM 42.1 °F 34.9 °F 35.1 °F 76% 29.66 in 10.0 mi East 13.8 mph - 0.00 in   Mostly Cloudy
3:53 AM 42.1 °F 40.2 °F 34.0 °F 73% 29.66 in 10.0 mi WSW 3.5 mph - N/A   Scattered Clouds
4:53 AM 37.9 °F 34.4 °F 34.0 °F 86% 29.68 in 10.0 mi North 4.6 mph - N/A   Scattered Clouds
5:53 AM 37.9 °F 32.1 °F 34.0 °F 86% 29.67 in 10.0 mi SE 8.1 mph - N/A   Overcast
6:53 AM 39.9 °F 33.9 °F 35.1 °F 83% 29.64 in 10.0 mi ESE 9.2 mph - N/A   Clear
7:53 AM 44.1 °F 37.1 °F 34.0 °F 68% 29.62 in 10.0 mi ESE 15.0 mph - N/A   Clear
8:53 AM 45.0 °F 37.1 °F 36.0 °F 71% 29.61 in 10.0 mi SE 19.6 mph 34.5 mph N/A   Overcast
9:53 AM 45.0 °F 38.2 °F 36.0 °F 71% 29.59 in 10.0 mi SSE 15.0 mph - N/A   Mostly Cloudy
10:53 AM 46.0 °F 41.0 °F 37.0 °F 71% 29.56 in 10.0 mi SSE 10.4 mph - 0.00 in   Mostly Cloudy
11:53 AM 46.9 °F - 37.9 °F 71% 29.53 in 10.0 mi SE 16.1 mph 21.9 mph N/A   Overcast
12:53 PM 43.0 °F 40.3 °F 37.9 °F 82% 29.54 in 10.0 mi WNW 4.6 mph - 0.00 in Rain Light Rain
1:53 PM 44.1 °F 37.4 °F 37.9 °F 79% 29.49 in 10.0 mi NNW 13.8 mph - 0.00 in   Overcast
2:01 PM 43.0 °F 35.1 °F 37.9 °F 82% 29.54 in 10.0 mi NW 17.3 mph - N/A   Overcast
2:53 PM 42.1 °F 37.7 °F 35.1 °F 76% 29.48 in 10.0 mi SSW 6.9 mph - 0.01 in Rain Light Rain
3:53 PM 44.1 °F 41.5 °F 35.1 °F 71% 29.48 in 10.0 mi NW 4.6 mph - 0.00 in   Overcast
4:53 PM 44.1 °F 40.8 °F 37.0 °F 76% 29.47 in 10.0 mi NE 5.8 mph - 0.00 in   Mostly Cloudy
5:53 PM 42.1 °F 35.7 °F 35.1 °F 76% 29.48 in 10.0 mi East 11.5 mph - N/A   Overcast
6:53 PM 43.0 °F 40.3 °F 30.0 °F 60% 29.50 in 10.0 mi West 4.6 mph - N/A   Partly Cloudy
7:53 PM 39.9 °F 37.8 °F 30.0 °F 68% 29.54 in 10.0 mi North 3.5 mph - N/A   Scattered Clouds
8:53 PM 39.9 °F 33.4 °F 28.0 °F 63% 29.57 in 10.0 mi West 10.4 mph - N/A   Mostly Cloudy
9:53 PM 37.9 °F 35.5 °F 30.9 °F 76% 29.60 in 10.0 mi Variable 3.5 mph - N/A   Overcast
10:53 PM 37.0 °F - 30.9 °F 79% 29.60 in 10.0 mi Calm Calm - N/A   Overcast
11:53 PM 37.0 °F 31.0 °F 30.0 °F 76% 29.63 in 10.0 mi North 8.1 mph - N/A   Mostly Cloudy